When you browse on this site, cookies collect data to enhance your experience and personalize the content and advertising you see.
Visit our Privacy Policy to learn more. By continuing to use the site, you agree to this use of cookies and data.
  • Em Portugal
  • Lista de países
  • Para 7 dias
  • Temperatura da água
  • Mapa do tempo
  • Widgets de tempo
  • user-avatar
    Iniciar Sessão

    Previsão horária em Brusbeno

    Hoje, 24 Fevereiro, Segunda-feira

    Tempo Temperatura Precipitação Vento Pressão Humidade
    00:00 +24°C° 0.1 mm 2 m/s 761 mmHg 80%
    01:00 +24°C° 0.1 mm 2 m/s 761 mmHg 82%
    02:00 +24°C° 0.1 mm 2 m/s 761 mmHg 82%
    03:00 +24°C° 0.1 mm 2 m/s 761 mmHg 83%
    04:00 +24°C° 0 mm 2 m/s 761 mmHg 84%
    05:00 +24°C° 0.5 mm 2 m/s 761 mmHg 85%
    06:00 +24°C° 0.5 mm 2 m/s 761 mmHg 86%
    07:00 +24°C° 0.5 mm 3 m/s 762 mmHg 87%
    08:00 +25°C° 0.4 mm 2 m/s 762 mmHg 85%
    09:00 +25°C° 0.4 mm 2 m/s 762 mmHg 82%
    10:00 +26°C° 0.4 mm 2 m/s 762 mmHg 80%
    11:00 +27°C° 0.1 mm 2 m/s 761 mmHg 74%
    12:00 +28°C° 0.1 mm 3 m/s 761 mmHg 68%
    13:00 +29°C° 0.1 mm 3 m/s 761 mmHg 62%
    14:00 +29°C° 0.1 mm 4 m/s 760 mmHg 62%
    15:00 +29°C° 0.1 mm 4 m/s 760 mmHg 62%
    16:00 +29°C° 0.1 mm 4 m/s 759 mmHg 62%
    17:00 +28°C° 0.3 mm 4 m/s 759 mmHg 69%
    18:00 +26°C° 0.3 mm 4 m/s 760 mmHg 75%
    19:00 +25°C° 0.3 mm 4 m/s 760 mmHg 82%
    20:00 +25°C° 0.2 mm 4 m/s 761 mmHg 83%
    21:00 +24°C° 0.2 mm 3 m/s 761 mmHg 84%
    22:00 +24°C° 0.2 mm 3 m/s 761 mmHg 85%
    23:00 +24°C° 0.1 mm 3 m/s 761 mmHg 86%

    Amanhã, 25 Fevereiro, Terça-feira

    Tempo Temperatura Precipitação Vento Pressão Humidade
    00:00 +24°C° 0.1 mm 3 m/s 760 mmHg 87%
    01:00 +22°C° 0.1 mm 3 m/s 760 mmHg 88%
    02:00 +22°C° 0.2 mm 3 m/s 759 mmHg 89%
    03:00 +22°C° 0.2 mm 3 m/s 759 mmHg 89%
    04:00 +22°C° 0.2 mm 3 m/s 759 mmHg 89%
    05:00 +24°C° 0.2 mm 3 m/s 759 mmHg 88%
    06:00 +24°C° 0.2 mm 3 m/s 760 mmHg 87%
    07:00 +24°C° 0.2 mm 3 m/s 760 mmHg 85%
    08:00 +25°C° 0.3 mm 3 m/s 760 mmHg 80%
    09:00 +27°C° 0.3 mm 4 m/s 760 mmHg 76%
    10:00 +28°C° 0.3 mm 4 m/s 760 mmHg 71%
    11:00 +29°C° 0.3 mm 4 m/s 760 mmHg 67%
    12:00 +29°C° 0.3 mm 4 m/s 759 mmHg 62%
    13:00 +30°C° 0.3 mm 5 m/s 759 mmHg 57%
    14:00 +30°C° 0 mm 4 m/s 758 mmHg 57%
    15:00 +30°C° 0 mm 4 m/s 758 mmHg 58%
    16:00 +30°C° 0 mm 4 m/s 757 mmHg 58%
    17:00 +28°C° 0 mm 4 m/s 758 mmHg 64%
    18:00 +27°C° 0 mm 3 m/s 758 mmHg 70%
    19:00 +26°C° 0 mm 3 m/s 758 mmHg 76%
    20:00 +25°C° 0 mm 3 m/s 759 mmHg 78%
    21:00 +25°C° 0 mm 2 m/s 759 mmHg 80%
    22:00 +25°C° 0 mm 2 m/s 759 mmHg 81%
    23:00 +25°C° 0 mm 2 m/s 758 mmHg 82%

    Depois de amanhã, 26 Fevereiro, Quarta-feira

    Tempo Temperatura Precipitação Vento Pressão Humidade
    00:00 +24°C° 0 mm 2 m/s 758 mmHg 83%
    01:00 +24°C° 0 mm 1 m/s 758 mmHg 84%
    02:00 +24°C° 0 mm 1 m/s 757 mmHg 85%
    03:00 +23°C° 0 mm 1 m/s 757 mmHg 85%
    04:00 +23°C° 0 mm 1 m/s 757 mmHg 85%
    05:00 +24°C° 0 mm 1 m/s 757 mmHg 83%
    06:00 +24°C° 0 mm 1 m/s 757 mmHg 81%
    07:00 +25°C° 0 mm 1 m/s 757 mmHg 79%
    08:00 +27°C° 0 mm 1 m/s 757 mmHg 72%
    09:00 +29°C° 0 mm 1 m/s 757 mmHg 65%
    10:00 +29°C° 0 mm 0 m/s 757 mmHg 58%
    11:00 +31°C° 0.1 mm 1 m/s 757 mmHg 56%
    12:00 +32°C° 0.1 mm 1 m/s 756 mmHg 55%
    13:00 +32°C° 0.1 mm 2 m/s 755 mmHg 54%
    14:00 +32°C° 0.1 mm 2 m/s 755 mmHg 55%
    15:00 +32°C° 0.1 mm 2 m/s 754 mmHg 56%
    16:00 +33°C° 0.1 mm 3 m/s 754 mmHg 57%
    17:00 +30°C° 0 mm 3 m/s 754 mmHg 64%
    18:00 +28°C° 0 mm 3 m/s 754 mmHg 70%
    19:00 +27°C° 0 mm 3 m/s 755 mmHg 77%
    20:00 +26°C° 0.1 mm 2 m/s 755 mmHg 79%
    21:00 +26°C° 0.1 mm 2 m/s 756 mmHg 82%
    22:00 +26°C° 0.1 mm 2 m/s 756 mmHg 84%
    23:00 +25°C° 0.1 mm 1 m/s 756 mmHg 85%

    27 Fevereiro, Quinta-feira

    Tempo Temperatura Precipitação Vento Pressão Humidade
    00:00 +25°C° 0.1 mm 1 m/s 755 mmHg 85%
    01:00 +25°C° 0.1 mm 1 m/s 755 mmHg 86%
    02:00 +25°C° 0 mm 1 m/s 755 mmHg 87%
    03:00 +24°C° 0 mm 1 m/s 754 mmHg 88%
    04:00 +24°C° 0 mm 1 m/s 754 mmHg 89%
    05:00 +25°C° 0 mm 1 m/s 754 mmHg 87%
    06:00 +25°C° 0 mm 1 m/s 755 mmHg 84%
    07:00 +26°C° 0 mm 1 m/s 755 mmHg 82%
    08:00 +28°C° 0.1 mm 1 m/s 755 mmHg 73%
    09:00 +31°C° 0.1 mm 1 m/s 755 mmHg 63%
    10:00 +33°C° 0.1 mm 1 m/s 755 mmHg 54%
    11:00 +34°C° 1 mm 2 m/s 755 mmHg 55%
    12:00 +33°C° 1 mm 3 m/s 755 mmHg 56%
    13:00 +33°C° 1 mm 4 m/s 754 mmHg 56%
    14:00 +32°C° 1.1 mm 4 m/s 754 mmHg 60%
    15:00 +32°C° 1.1 mm 4 m/s 754 mmHg 63%
    16:00 +30°C° 1.1 mm 4 m/s 753 mmHg 67%
    17:00 +29°C° 0.2 mm 4 m/s 754 mmHg 71%
    18:00 +28°C° 0.2 mm 3 m/s 754 mmHg 74%
    19:00 +27°C° 0.2 mm 3 m/s 755 mmHg 78%
    20:00 +27°C° 0.6 mm 3 m/s 755 mmHg 79%
    21:00 +26°C° 0.6 mm 3 m/s 756 mmHg 80%
    22:00 +26°C° 0.6 mm 3 m/s 756 mmHg 82%
    23:00 +26°C° 0.6 mm 2 m/s 756 mmHg 83%

    28 Fevereiro, Sexta-feira

    Tempo Temperatura Precipitação Vento Pressão Humidade
    00:00 +25°C° 0.6 mm 2 m/s 756 mmHg 84%
    01:00 +25°C° 0.6 mm 2 m/s 755 mmHg 86%
    02:00 +25°C° 0 mm 2 m/s 755 mmHg 86%
    03:00 +24°C° 0 mm 2 m/s 755 mmHg 87%
    04:00 +24°C° 0 mm 1 m/s 755 mmHg 87%
    05:00 +24°C° 0 mm 1 m/s 756 mmHg 86%
    06:00 +25°C° 0 mm 2 m/s 756 mmHg 84%
    07:00 +25°C° 0 mm 2 m/s 757 mmHg 83%
    08:00 +27°C° 0 mm 2 m/s 757 mmHg 74%
    09:00 +29°C° 0 mm 2 m/s 756 mmHg 65%
    10:00 +31°C° 0 mm 2 m/s 756 mmHg 56%
    11:00 +31°C° 0 mm 3 m/s 756 mmHg 54%
    12:00 +33°C° 0 mm 4 m/s 756 mmHg 52%
    13:00 +34°C° 0 mm 5 m/s 756 mmHg 50%
    14:00 +33°C° 0.8 mm 5 m/s 755 mmHg 56%
    15:00 +32°C° 0.8 mm 5 m/s 755 mmHg 61%
    16:00 +30°C° 0.8 mm 5 m/s 755 mmHg 66%
    17:00 +29°C° 0.2 mm 4 m/s 756 mmHg 70%
    18:00 +28°C° 0.2 mm 4 m/s 756 mmHg 74%
    19:00 +27°C° 0.2 mm 3 m/s 757 mmHg 78%
    20:00 +26°C° 0.7 mm 3 m/s 757 mmHg 80%
    21:00 +26°C° 0.7 mm 4 m/s 758 mmHg 82%
    22:00 +25°C° 0.7 mm 4 m/s 758 mmHg 84%
    23:00 +25°C° 0.8 mm 4 m/s 758 mmHg 85%

    29 Fevereiro, Sábado

    Tempo Temperatura Precipitação Vento Pressão Humidade
    00:00 +25°C° 0.8 mm 3 m/s 757 mmHg 86%
    01:00 +25°C° 0.8 mm 3 m/s 757 mmHg 87%
    02:00 +24°C° 0.3 mm 3 m/s 757 mmHg 87%
    03:00 +24°C° 0.3 mm 3 m/s 757 mmHg 87%
    04:00 +24°C° 0.3 mm 3 m/s 757 mmHg 87%
    05:00 +23°C° 0.3 mm 4 m/s 758 mmHg 86%
    06:00 +25°C° 0.3 mm 4 m/s 758 mmHg 85%
    07:00 +25°C° 0.3 mm 4 m/s 759 mmHg 83%
    08:00 +26°C° 0.4 mm 5 m/s 759 mmHg 78%
    09:00 +27°C° 0.4 mm 5 m/s 759 mmHg 73%
    10:00 +29°C° 0.4 mm 5 m/s 759 mmHg 67%
    11:00 +28°C° 1 mm 5 m/s 759 mmHg 70%
    12:00 +28°C° 1 mm 6 m/s 759 mmHg 72%
    13:00 +28°C° 1 mm 6 m/s 758 mmHg 74%
    14:00 +28°C° 0.9 mm 6 m/s 758 mmHg 75%
    15:00 +27°C° 1 mm 6 m/s 758 mmHg 76%
    16:00 +27°C° 1 mm 6 m/s 758 mmHg 77%
    17:00 +26°C° 0.3 mm 5 m/s 758 mmHg 79%
    18:00 +26°C° 0.3 mm 5 m/s 758 mmHg 81%
    19:00 +25°C° 0.3 mm 5 m/s 759 mmHg 82%
    20:00 +25°C° 0.6 mm 4 m/s 759 mmHg 83%
    21:00 +25°C° 0.6 mm 4 m/s 759 mmHg 84%
    22:00 +25°C° 0.6 mm 4 m/s 760 mmHg 85%
    23:00 +25°C° 0.9 mm 4 m/s 759 mmHg 86%
    Mostrar mais